Voltar ao catálogo

FENGYUN 1C DEB

AtivoPO
NORAD 32372·DEBRIS·🇨🇳 China

Lançado May 10, 1999 de Taiyuan Satellite Launch Center

Loading…

Próximas Passagens (próximas 24 horas)

TLE

EnvelhecendoSource: Space-Track

Época: Sep 7, 2026, 17:15 UTC

1 32372U 99025CZR 26250.71941517  .00000682  00000-0  75787-3 0  9995
2 32372  97.3077  61.5035 0455895  60.2248 304.3425 13.36115432637310

Acompanhe FENGYUN 1C DEB em tempo real com AllMySat

Download on the App Store